AEE167 LGIO-LGAV

Flight info

Callsign AEE167
Flight time 0h 37m
Altitude 23000
Route IBTIN L611 GARTA L53 PIKAD
Aircraft A320/M-SDE3FGHIRWY/LB1

Departure

Time 2026-04-23 16:31
Airport Ioannina King Pyrrhus National Airport (LGIO)

Arrival

Time 2026-04-23 17:08
Airport Athens Eleftherios Venizelos International Airport (LGAV)
Time Latitude Longitude Altitude Speed Heading
2026-04-23 16:07 39.69332 20.82318 1565 ft 0 kts 268°
2026-04-23 16:25 39.69333 20.82316 1565 ft 0 kts 275°
2026-04-23 16:26 39.69336 20.82313 1565 ft 1 kts 305°
2026-04-23 16:26 39.69357 20.82308 1565 ft 7 kts 349°
2026-04-23 16:26 39.69419 20.82260 1565 ft 13 kts 323°
2026-04-23 16:26 39.69484 20.82189 1565 ft 11 kts 319°
2026-04-23 16:27 39.69547 20.82119 1565 ft 13 kts 319°
2026-04-23 16:27 39.69624 20.82037 1565 ft 15 kts 322°
2026-04-23 16:27 39.69715 20.81946 1565 ft 18 kts 322°
2026-04-23 16:27 39.69798 20.81868 1565 ft 14 kts 338°
2026-04-23 16:28 39.69884 20.81909 1566 ft 14 kts 47°
2026-04-23 16:28 39.69970 20.81948 1567 ft 15 kts 338°
2026-04-23 16:28 39.70059 20.81857 1566 ft 18 kts 322°
2026-04-23 16:28 39.70170 20.81745 1564 ft 23 kts 322°
2026-04-23 16:29 39.70302 20.81617 1564 ft 25 kts 324°
2026-04-23 16:29 39.70427 20.81493 1564 ft 22 kts 322°
2026-04-23 16:29 39.70517 20.81384 1565 ft 15 kts 302°
2026-04-23 16:29 39.70566 20.81335 1565 ft 5 kts 45°
2026-04-23 16:30 39.70553 20.81350 1565 ft 3 kts 147°
2026-04-23 16:30 39.70546 20.81357 1565 ft 2 kts 144°
2026-04-23 16:30 39.70540 20.81363 1565 ft 2 kts 141°
2026-04-23 16:30 39.70409 20.81501 1564 ft 59 kts 141°
2026-04-23 16:31 39.69917 20.82003 1567 ft 118 kts 142°
2026-04-23 16:31 39.69156 20.82788 1682 ft 148 kts 138°
2026-04-23 16:31 39.68338 20.83620 2192 ft 152 kts 140°
2026-04-23 16:31 39.67543 20.84509 2773 ft 150 kts 131°
2026-04-23 16:32 39.66807 20.85472 3267 ft 152 kts 130°
2026-04-23 16:32 39.66032 20.86546 3511 ft 174 kts 128°
2026-04-23 16:32 39.65156 20.87766 3735 ft 196 kts 129°
2026-04-23 16:32 39.64166 20.89133 4004 ft 219 kts 129°
2026-04-23 16:33 39.62966 20.90368 4609 ft 225 kts 155°
2026-04-23 16:33 39.61422 20.90706 5197 ft 229 kts 186°
2026-04-23 16:33 39.59918 20.90066 5785 ft 234 kts 203°
2026-04-23 16:33 39.58380 20.89358 6382 ft 236 kts 187°
2026-04-23 16:34 39.56738 20.89369 6955 ft 238 kts 166°
2026-04-23 16:34 39.55162 20.90042 7442 ft 240 kts 158°
2026-04-23 16:34 39.53588 20.90818 7905 ft 242 kts 158°
2026-04-23 16:34 39.52010 20.91602 8372 ft 244 kts 158°
2026-04-23 16:35 39.50418 20.92391 8845 ft 245 kts 158°
2026-04-23 16:35 39.48822 20.93181 9326 ft 247 kts 159°
2026-04-23 16:35 39.47164 20.93790 9794 ft 249 kts 175°
2026-04-23 16:35 39.45431 20.93633 9936 ft 250 kts 198°
2026-04-23 16:36 39.43881 20.92656 9954 ft 248 kts 219°
2026-04-23 16:36 39.42520 20.91289 10011 ft 249 kts 219°
2026-04-23 16:36 39.41077 20.90008 10436 ft 266 kts 205°
2026-04-23 16:36 39.39193 20.89542 10721 ft 291 kts 175°
2026-04-23 16:37 39.37239 20.90447 10981 ft 314 kts 144°
2026-04-23 16:37 39.35559 20.92414 11186 ft 336 kts 134°
2026-04-23 16:37 39.33929 20.94669 11678 ft 348 kts 131°
2026-04-23 16:37 39.32316 20.97028 12339 ft 353 kts 131°
2026-04-23 16:38 39.30693 20.99430 13015 ft 358 kts 131°
2026-04-23 16:38 39.29031 21.01859 13709 ft 362 kts 132°
2026-04-23 16:38 39.27339 21.04290 14329 ft 366 kts 133°
2026-04-23 16:38 39.25613 21.06734 14915 ft 371 kts 133°
2026-04-23 16:39 39.23854 21.09203 15503 ft 375 kts 133°
2026-04-23 16:39 39.22074 21.11686 16094 ft 379 kts 134°
2026-04-23 16:39 39.20270 21.14197 16686 ft 384 kts 134°
2026-04-23 16:39 39.18439 21.16745 17220 ft 389 kts 134°
2026-04-23 16:40 39.16588 21.19318 17774 ft 394 kts 134°
2026-04-23 16:40 39.14716 21.21923 18337 ft 399 kts 134°
2026-04-23 16:40 39.12818 21.24565 18843 ft 404 kts 135°
2026-04-23 16:40 39.10897 21.27239 19397 ft 409 kts 135°
2026-04-23 16:41 39.08979 21.29915 19947 ft 413 kts 135°
2026-04-23 16:41 39.07014 21.32652 20504 ft 417 kts 135°
2026-04-23 16:41 39.05026 21.35417 20918 ft 423 kts 136°
2026-04-23 16:41 39.03015 21.38209 21394 ft 427 kts 136°
2026-04-23 16:42 39.00991 21.41017 21953 ft 429 kts 136°
2026-04-23 16:42 38.98953 21.43839 22446 ft 434 kts 136°
2026-04-23 16:42 38.96887 21.46695 22872 ft 438 kts 136°
2026-04-23 16:42 38.94802 21.49576 22972 ft 443 kts 137°
2026-04-23 16:43 38.92693 21.52483 22981 ft 446 kts 137°
2026-04-23 16:43 38.90576 21.55397 22995 ft 447 kts 137°
2026-04-23 16:43 38.88459 21.58315 22991 ft 447 kts 136°
2026-04-23 16:43 38.86342 21.61238 22996 ft 446 kts 136°
2026-04-23 16:44 38.84227 21.64158 22975 ft 449 kts 137°
2026-04-23 16:44 38.82089 21.67108 22991 ft 451 kts 137°
2026-04-23 16:44 38.79948 21.70056 22989 ft 452 kts 137°
2026-04-23 16:44 38.77800 21.73006 22994 ft 453 kts 137°
2026-04-23 16:45 38.75651 21.75949 22990 ft 452 kts 138°
2026-04-23 16:45 38.73504 21.78888 22992 ft 452 kts 138°
2026-04-23 16:45 38.71376 21.81796 22998 ft 453 kts 138°
2026-04-23 16:45 38.69215 21.84745 22993 ft 453 kts 138°
2026-04-23 16:46 38.67030 21.87727 22991 ft 454 kts 138°
2026-04-23 16:46 38.64902 21.90630 22986 ft 454 kts 138°
2026-04-23 16:46 38.62743 21.93573 22998 ft 454 kts 138°
2026-04-23 16:46 38.60581 21.96516 23001 ft 454 kts 138°
2026-04-23 16:47 38.58417 21.99461 22996 ft 454 kts 138°
2026-04-23 16:47 38.56256 22.02403 22998 ft 454 kts 138°
2026-04-23 16:47 38.54817 22.04360 23001 ft 454 kts 138°
2026-04-23 16:47 38.52649 22.07304 23009 ft 454 kts 138°
2026-04-23 16:48 38.50487 22.10239 23008 ft 454 kts 138°
2026-04-23 16:48 38.48317 22.13177 23000 ft 455 kts 139°
2026-04-23 16:48 38.46142 22.16120 22992 ft 455 kts 139°
2026-04-23 16:48 38.43973 22.19052 22988 ft 455 kts 139°
2026-04-23 16:49 38.41794 22.21990 22989 ft 455 kts 139°
2026-04-23 16:49 38.39612 22.24933 22987 ft 457 kts 139°
2026-04-23 16:49 38.37434 22.27869 22980 ft 456 kts 139°
2026-04-23 16:49 38.35258 22.30800 22988 ft 457 kts 139°
2026-04-23 16:50 38.33062 22.33757 22999 ft 458 kts 139°
2026-04-23 16:50 38.30871 22.36704 23003 ft 458 kts 139°
2026-04-23 16:50 38.28684 22.39641 23004 ft 458 kts 139°
2026-04-23 16:50 38.26495 22.42582 22972 ft 458 kts 140°
2026-04-23 16:51 38.24297 22.45532 22975 ft 458 kts 140°
2026-04-23 16:51 38.22134 22.48433 22928 ft 446 kts 140°
2026-04-23 16:51 38.20033 22.51254 22636 ft 442 kts 140°
2026-04-23 16:51 38.17929 22.54065 22305 ft 437 kts 140°
2026-04-23 16:52 38.15830 22.56848 21983 ft 434 kts 140°
2026-04-23 16:52 38.13740 22.59598 21597 ft 430 kts 140°
2026-04-23 16:52 38.11659 22.62311 21211 ft 426 kts 140°
2026-04-23 16:52 38.09591 22.64983 20829 ft 422 kts 140°
2026-04-23 16:53 38.07529 22.67617 20450 ft 418 kts 140°
2026-04-23 16:53 38.05477 22.70212 20074 ft 414 kts 140°
2026-04-23 16:53 38.03432 22.72772 19704 ft 410 kts 140°
2026-04-23 16:53 38.01405 22.75282 19341 ft 407 kts 140°
2026-04-23 16:54 37.99373 22.77772 18976 ft 403 kts 140°
2026-04-23 16:54 37.97376 22.80195 18619 ft 400 kts 140°
2026-04-23 16:54 37.95373 22.82619 18233 ft 397 kts 140°
2026-04-23 16:54 37.93379 22.85025 17824 ft 395 kts 140°
2026-04-23 16:55 37.91388 22.87415 17419 ft 392 kts 140°
2026-04-23 16:55 37.89415 22.89772 17019 ft 388 kts 140°
2026-04-23 16:55 37.87449 22.92109 16624 ft 385 kts 140°
2026-04-23 16:55 37.85497 22.94419 16236 ft 383 kts 140°
2026-04-23 16:56 37.83555 22.96707 15851 ft 380 kts 140°
2026-04-23 16:56 37.81627 22.98965 15384 ft 376 kts 140°
2026-04-23 16:56 37.79713 23.01191 14802 ft 372 kts 140°
2026-04-23 16:56 37.77809 23.03382 14223 ft 368 kts 140°
2026-04-23 16:57 37.75925 23.05541 13601 ft 364 kts 140°
2026-04-23 16:57 37.74061 23.07667 12928 ft 359 kts 140°
2026-04-23 16:57 37.72215 23.09761 12271 ft 354 kts 140°
2026-04-23 16:57 37.70391 23.11819 11577 ft 349 kts 140°
2026-04-23 16:58 37.68587 23.13844 10878 ft 344 kts 140°
2026-04-23 16:58 37.66802 23.15835 10181 ft 339 kts 140°
2026-04-23 16:58 37.65103 23.17850 9461 ft 332 kts 130°
2026-04-23 16:58 37.64013 23.20369 8725 ft 325 kts 105°
2026-04-23 16:59 37.63627 23.23138 8092 ft 316 kts 96°
2026-04-23 16:59 37.63391 23.25849 7505 ft 306 kts 92°
2026-04-23 16:59 37.63640 23.28419 6937 ft 297 kts 73°
2026-04-23 16:59 37.64248 23.30910 6406 ft 295 kts 70°
2026-04-23 17:00 37.64890 23.33371 6083 ft 298 kts 70°
2026-04-23 17:00 37.65549 23.35873 5745 ft 299 kts 70°
2026-04-23 17:00 37.66206 23.38361 5410 ft 297 kts 70°
2026-04-23 17:00 37.66858 23.40826 5078 ft 295 kts 70°
2026-04-23 17:01 37.67509 23.43282 4752 ft 296 kts 70°
2026-04-23 17:01 37.68166 23.45789 4518 ft 302 kts 70°
2026-04-23 17:01 37.68826 23.48311 4356 ft 303 kts 70°
2026-04-23 17:01 37.69483 23.50803 4177 ft 302 kts 70°
2026-04-23 17:02 37.70144 23.53311 3931 ft 301 kts 70°
2026-04-23 17:02 37.70803 23.55806 3673 ft 299 kts 70°
2026-04-23 17:02 37.71465 23.58306 3422 ft 299 kts 70°
2026-04-23 17:02 37.72122 23.60781 3176 ft 297 kts 70°
2026-04-23 17:03 37.72783 23.63268 3001 ft 297 kts 70°
2026-04-23 17:03 37.73441 23.65733 2996 ft 291 kts 70°
2026-04-23 17:03 37.74071 23.68086 3001 ft 278 kts 70°
2026-04-23 17:03 37.74679 23.70361 3002 ft 268 kts 70°
2026-04-23 17:04 37.75273 23.72586 3006 ft 266 kts 70°
2026-04-23 17:04 37.75866 23.74807 3006 ft 266 kts 70°
2026-04-23 17:04 37.76657 23.76878 3008 ft 259 kts 51°
2026-04-23 17:04 37.77947 23.78437 3004 ft 256 kts 35°
2026-04-23 17:05 37.79378 23.79783 3004 ft 253 kts 35°
2026-04-23 17:05 37.80752 23.81079 3004 ft 239 kts 34°
2026-04-23 17:05 37.82055 23.82313 2834 ft 229 kts 35°
2026-04-23 17:05 37.83318 23.83509 2554 ft 225 kts 36°
2026-04-23 17:06 37.84567 23.84692 2259 ft 223 kts 36°
2026-04-23 17:06 37.85794 23.85854 1955 ft 225 kts 36°
2026-04-23 17:06 37.87010 23.87007 1655 ft 203 kts 36°
2026-04-23 17:06 37.88074 23.88017 1399 ft 187 kts 36°
2026-04-23 17:07 37.89086 23.88977 1151 ft 171 kts 37°
2026-04-23 17:07 37.89970 23.89827 962 ft 146 kts 36°
2026-04-23 17:07 37.90760 23.90574 757 ft 136 kts 34°
2026-04-23 17:07 37.91518 23.91295 557 ft 135 kts 36°
2026-04-23 17:08 37.92253 23.91995 373 ft 132 kts 36°
2026-04-23 17:08 37.92952 23.92656 296 ft 110 kts 38°
2026-04-23 17:08 37.93421 23.93100 293 ft 54 kts 37°
2026-04-23 17:08 37.93592 23.93345 291 ft 29 kts 65°
2026-04-23 17:09 37.93649 23.93514 298 ft 13 kts 66°
2026-04-23 17:09 37.93686 23.93617 301 ft 13 kts 59°
2026-04-23 17:09 37.93760 23.93699 299 ft 16 kts 37°
2026-04-23 17:09 37.93855 23.93789 300 ft 18 kts 37°
2026-04-23 17:10 37.93964 23.93891 300 ft 20 kts 38°
2026-04-23 17:10 37.94082 23.94005 301 ft 22 kts 36°
2026-04-23 17:10 37.94211 23.94127 303 ft 24 kts 37°
2026-04-23 17:10 37.94344 23.94255 302 ft 23 kts 37°
2026-04-23 17:11 37.94462 23.94364 302 ft 21 kts 36°
2026-04-23 17:11 37.94584 23.94480 302 ft 22 kts 37°
2026-04-23 17:11 37.94692 23.94594 304 ft 12 kts 61°
2026-04-23 17:11 37.94653 23.94681 302 ft 13 kts 128°
2026-04-23 17:12 37.94590 23.94785 301 ft 16 kts 127°
2026-04-23 17:12 37.94515 23.94911 303 ft 19 kts 127°
2026-04-23 17:12 37.94429 23.95058 301 ft 22 kts 126°
2026-04-23 17:12 37.94341 23.95205 303 ft 21 kts 127°
2026-04-23 17:13 37.94248 23.95365 301 ft 20 kts 127°
2026-04-23 17:13 37.94174 23.95488 302 ft 18 kts 127°
2026-04-23 17:13 37.94093 23.95551 299 ft 15 kts 195°
2026-04-23 17:13 37.94005 23.95475 301 ft 16 kts 217°
2026-04-23 17:14 37.93917 23.95392 301 ft 13 kts 217°
2026-04-23 17:14 37.93909 23.95322 301 ft 9 kts 301°
2026-04-23 17:14 37.93960 23.95234 300 ft 16 kts 306°
2026-04-23 17:14 37.94009 23.95158 301 ft 7 kts 333°
2026-04-23 17:15 37.94056 23.95189 302 ft 9 kts 37°
2026-04-23 17:15 37.94074 23.95207 303 ft 0 kts 39°